CW2434 Weather Reports


Display with metric or nautical units.
time (UTC)temp
F
wind
direction
speed
MPH
gust
MPH
rain 1hr
in
rain 24hr
in
rain mn
in
humidity
%
barometer
mb
20260906030101 65 0 0.0 4.0 0.00 0.00 0.00 82 1013.0
20260906024610 65 19 0.0 3.0 0.00 0.00 0.00 82 1013.1
20260906023103 65 24 0.0 3.0 0.00 0.00 0.00 82 1013.2
20260906021556 65 0 0.0 3.0 0.00 0.00 0.00 81 1013.1
20260906014553 65 34 1.0 7.0 0.00 0.00 0.00 82 1013.1
20260906013100 65 0 0.0 4.0 0.00 0.00 0.00 82 1013.0
20260906011558 65 0 0.0 4.0 0.00 0.00 0.00 82 1012.9
20260906010058 66 342 1.0 5.0 0.00 0.00 0.00 81 1012.8
20260906004607 66 27 2.0 8.0 0.00 0.00 0.00 79 1012.4
20260906003100 67 5 2.0 7.0 0.00 0.00 0.00 78 1012.4
20260906001607 67 41 1.0 5.0 0.00 0.00 0.00 76 1012.2
20260906000056 68 331 1.0 5.0 0.00 0.00 0.00 75 1012.5
20260905234559 68 352 1.0 3.0 0.00 0.00 0.00 74 1012.3
20260905233101 69 352 0.0 4.0 0.00 0.00 0.00 73 1011.9
20260905231608 69 22 2.0 6.0 0.00 0.00 0.00 72 1011.9
20260905230107 70 352 4.0 9.0 0.00 0.00 0.00 70 1012.0
20260905224617 70 340 3.0 10.0 0.00 0.00 0.00 70 1011.8
20260905223116 71 12 3.0 11.0 0.00 0.00 0.00 68 1011.9
20260905221555 72 352 5.0 12.0 0.00 0.00 0.00 66 1011.7
20260905220057 72 32 3.0 10.0 0.00 0.00 0.00 65 1011.6
20260905214603 73 12 3.0 13.0 0.00 0.00 0.00 63 1011.5
20260905213102 74 27 6.0 14.0 0.00 0.00 0.00 62 1011.2
20260905211558 75 329 6.0 12.0 0.00 0.00 0.00 59 1011.2
20260905210107 75 36 5.0 12.0 0.00 0.00 0.00 60 1011.2
20260905204555 76 15 5.0 10.0 0.00 0.00 0.00 62 1010.8
20260905203059 76 352 6.0 11.0 0.00 0.00 0.00 59 1010.9
20260905201555 76 280 6.0 13.0 0.00 0.00 0.00 59 1010.8
20260905200054 76 343 6.0 15.0 0.00 0.00 0.00 57 1010.8
20260905194557 75 348 8.0 15.0 0.00 0.00 0.00 60 1010.8
20260905193100 75 331 2.0 10.0 0.00 0.00 0.00 62 1010.9
20260905191559 75 35 2.0 12.0 0.00 0.00 0.00 60 1010.9
20260905184607 74 344 4.0 9.0 0.00 0.00 0.00 65 1010.9
20260905183101 74 15 5.0 14.0 0.00 0.00 0.00 63 1010.8
20260905181553 73 42 3.0 10.0 0.00 0.00 0.00 66 1011.1
20260905180108 74 44 4.0 14.0 0.00 0.00 0.00 65 1011.1
20260905174559 73 5 5.0 11.0 0.00 0.00 0.00 67 1011.2
20260905173106 72 294 5.0 10.0 0.00 0.00 0.00 68 1011.3
20260905171601 72 40 3.0 11.0 0.00 0.00 0.00 68 1011.4
20260905170111 72 350 5.0 16.0 0.00 0.00 0.00 67 1011.6
20260905164605 72 0 2.0 13.0 0.00 0.00 0.00 68 1011.5
20260905163117 71 342 2.0 14.0 0.00 0.00 0.00 69 1011.4
20260905161609 70 360 8.0 15.0 0.00 0.00 0.00 68 1011.6
20260905160059 69 34 3.0 13.0 0.00 0.00 0.00 71 1011.5
20260905154611 69 347 4.0 12.0 0.00 0.00 0.00 72 1011.4
20260905153058 70 319 6.0 12.0 0.00 0.00 0.00 73 1011.5
20260905151555 70 339 6.0 13.0 0.00 0.00 0.00 73 1011.6
20260905150100 69 11 3.0 11.0 0.00 0.00 0.00 75 1011.7
20260905144602 68 28 6.0 12.0 0.00 0.00 0.00 76 1011.7
20260905143100 68 333 5.0 16.0 0.00 0.00 0.00 77 1011.6
20260905141606 68 33 3.0 11.0 0.00 0.00 0.00 79 1011.5
20260905134557 66 11 5.0 12.0 0.00 0.00 0.00 82 1011.6
20260905133106 66 288 5.0 11.0 0.00 0.00 0.00 83 1011.7
20260905131603 64 0 2.0 10.0 0.00 0.00 0.00 86 1011.8
20260905130056 63 331 3.0 6.0 0.00 0.00 0.00 89 1011.8
20260905124554 62 0 0.0 4.0 0.00 0.00 0.00 89 1011.8
20260905123105 62 266 1.0 4.0 0.00 0.00 0.00 91 1012.1
20260905121558 61 0 0.0 0.0 0.00 0.00 0.00 92 1012.0
20260905120100 60 0 0.0 0.0 0.00 0.00 0.00 92 1011.9
20260905114603 59 0 0.0 0.0 0.00 0.00 0.00 93 1011.7
20260905113054 59 0 0.0 0.0 0.00 0.00 0.00 92 1011.4
20260905111555 59 0 0.0 0.0 0.00 0.00 0.00 92 1011.4
20260905110055 59 0 0.0 0.0 0.00 0.00 0.00 92 1011.2
20260905104557 59 0 0.0 0.0 0.00 0.00 0.00 91 1011.0
20260905103104 59 0 0.0 0.0 0.00 0.00 0.00 90 1010.9
20260905101602 60 0 0.0 0.0 0.00 0.00 0.00 89 1010.7
20260905100120 60 0 0.0 0.0 0.00 0.00 0.00 89 1010.6
20260905094600 60 0 0.0 0.0 0.00 0.00 0.00 89 1010.6
20260905093055 60 0 0.0 0.0 0.00 0.00 0.00 88 1010.6
20260905091601 61 0 0.0 0.0 0.00 0.00 0.00 86 1010.7
20260905090100 61 0 0.0 0.0 0.00 0.00 0.00 85 1010.6
20260905084559 62 0 0.0 0.0 0.00 0.01 0.00 84 1010.7
20260905083114 62 0 0.0 1.0 0.00 0.01 0.00 84 1010.4
20260905081612 62 0 0.0 3.0 0.00 0.01 0.00 83 1010.5
20260905080104 62 5 0.0 4.0 0.00 0.01 0.00 83 1010.6
20260905074558 62 0 0.0 4.0 0.00 0.27 0.00 83 1010.5
20260905073100 62 0 0.0 2.0 0.00 0.27 0.00 84 1010.6
20260905071556 61 0 0.0 0.0 0.00 0.27 0.00 85 1010.8
20260905064620 62 0 0.0 2.0 0.00 0.46 0.00 84 1011.0
20260905063056 61 0 0.0 0.0 0.00 0.46 0.00 84 1011.1
20260905061608 61 0 0.0 0.0 0.00 0.46 0.00 85 1011.1
20260905060108 61 0 0.0 0.0 0.00 0.46 0.00 87 1011.4
20260905054706 61 0 0.0 0.0 0.00 0.46 0.00 86 1011.6
20260905053059 62 0 0.0 0.0 0.00 0.46 0.00 84 1011.7
20260905051600 62 0 0.0 0.0 0.00 0.46 0.00 85 1011.8
20260905050059 63 0 0.0 0.0 0.00 0.46 0.00 85 1011.8
20260905044609 64 0 0.0 0.0 0.00 0.46 0.00 79 1011.8
20260905043104 63 0 0.0 0.0 0.00 0.46 0.00 82 1011.9
20260905041556 63 0 0.0 0.0 0.00 0.46 0.00 84 1011.8
20260905040109 64 0 0.0 0.0 0.00 0.46 0.00 84 1012.0
20260905034607 64 0 0.0 0.0 0.00 0.46 0.46 82 1011.9
20260905033055 65 0 0.0 0.0 0.00 0.46 0.46 82 1011.8
20260905031552 64 0 0.0 0.0 0.00 0.46 0.46 81 1011.6